Location: Copper Breaks State Park
(34.1132°N, 99.7492°W)
Time: 22:33:47
(UTC-05:00)

Daily predictions for brighter satellites

Satellite Brightness Start Highest point End
(mag) Time Altitude Azimuth Time Altitude Azimuth Time Altitude Azimuth
H-2A R/B 3.2 21:05:18 10° SSE 21:09:05 46° ENE 21:12:53 10° N
FengYun 1-2 T 4.4 21:03:58 10° S 21:09:28 81° WSW 21:14:58 10° NNW
Cosmos 2285 Rocket 4.1 21:04:07 10° NNW 21:10:29 89° ENE 21:16:52 10° SSE
Cosmos 1464 Rocket 4.1 21:04:35 10° N 21:10:41 61° E 21:16:47 10° SSE
Centaur D AC-28 2.8 21:06:34 10° W 21:11:18 32° SSW 21:14:35 10° SE
Delta 168 4.1 21:12:11 10° SW 21:14:22 18° S 21:16:45 10° SE
Cosmos 1461 2.8 21:11:36 10° NNW 21:15:50 83° ENE 21:19:50 10° SSE
ATLAS 3B R/B 3.3 21:11:03 10° S 21:18:15 45° ESE 21:25:24 10° NE
SPOT 5 4.5 21:21:38 10° ESE 21:24:08 15° ENE 21:26:37 10° NNE
Cosmos 1302 Rocket 4.3 21:26:58 10° NNW 21:32:12 72° WSW 21:37:26 10° S
Cosmos 2034 Rocket 4.1 21:26:24 10° N 21:32:44 69° E 21:38:58 10° SSE
CZ-4 DEB 3.2 21:34:43 10° S 21:37:55 62° W 21:41:06 10° NNW
Cosmos 1666 3.0 21:34:31 10° N 21:38:24 72° W 21:42:16 10° S
Cosmos 2369 Rocket 3.3 21:35:44 10° N 21:40:38 30° ENE 21:44:35 14° ESE
ERS-1 Rocket 3.0 21:37:35 10° SSE 21:42:32 66° ENE 21:47:31 10° N
COSMOS 2455 3.4 21:37:30 10° SW 21:43:27 65° WNW 21:49:26 10° NNE
GRACE-1 4.1 21:45:30 10° NNE 21:48:18 49° E 21:50:09 18° SSE
GRACE-2 4.1 21:45:56 10° NNE 21:48:44 49° E 21:50:34 18° SSE
Cosmos 1900 4.5 21:45:57 10° S 21:50:58 57° ESE 21:56:01 10° NE
SJ-11-01 4.2 21:47:28 11° SSE 21:51:55 74° ENE 21:56:35 10° N
Envisat 3.3 21:57:18 18° SE 22:00:50 51° ENE 22:05:45 10° N
CZ-2C R/B 1.7 22:01:08 17° SSW 22:02:32 37° W 22:04:41 10° NNW
GEOS 3 Rocket 3.7 21:59:26 19° SE 22:03:11 70° NE 22:08:24 10° NNW
Cosmos 407 Rocket 3.6 21:58:19 10° S 22:03:27 56° ESE 22:08:33 10° NNE
USA 238 DEB 4.2 21:59:33 10° S 22:05:59 38° ESE 22:12:23 10° NE
USA 238 4.2 21:59:41 10° S 22:06:05 38° ESE 22:12:29 10° NE
Cosmos 1515 3.7 22:03:09 10° S 22:07:01 88° W 22:10:53 10° N
SL-27 R/B 4.3 22:10:37 16° ENE 22:10:37 16° ENE 22:11:50 10° NE
USA 186 4.4 22:12:16 10° WSW 22:13:26 12° W 22:14:34 10° WNW
Cosmos 1825 Rocket 3.5 22:10:34 15° S 22:14:12 73° E 22:18:37 10° N
Cosmos 1066 Rocket 4.2 22:16:11 10° S 22:21:51 84° E 22:27:42 10° N
ALOS 4.5 22:19:00 10° SW 22:22:36 22° W 22:26:12 10° NW
COSMOS 2406 4.0 22:21:23 28° SE 22:22:44 31° ESE 22:27:42 10° NE
Lacrosse 4 Rocket 2.2 22:18:51 10° SW 22:22:46 50° WNW 22:26:45 10° NNE
UNK 4.2 22:18:17 10° NNE 22:23:51 75° ESE 22:29:39 10° S
Cosmos 1954 Rocket 4.2 22:21:57 23° SSE 22:24:57 49° ESE 22:30:03 10° NNE
Cosmos 1812 Rocket 4.5 22:21:40 10° NNW 22:25:53 47° W 22:29:29 14° SSW
Cosmos 1943 Rocket 3.3 22:25:10 10° N 22:30:00 29° ENE 22:31:53 24° E
H-2A R/B 3.3 22:30:32 15° SSW 22:33:43 37° W 22:37:47 10° NNW
SeaSat 1 2.9 22:32:37 33° ESE 22:34:22 48° ENE 22:39:07 10° NNW
Cosmos 1992 Rocket 4.4 22:32:30 10° NNW 22:37:38 60° WSW 22:40:27 26° S
Cosmos 1943 4.5 22:33:01 10° SW 22:38:20 42° WNW 22:43:43 10° N
Atlas Centaur 2 2.9 22:31:27 10° W 22:38:27 64° S 22:42:50 29° ESE
Meteor 1-22 Rocket 4.2 22:36:18 10° N 22:42:01 76° E 22:44:35 35° SSE
Kosmos-1675 2.9 22:47:09 75° E 22:47:09 75° E 22:52:44 10° NNE
Cosmos 1953 3.6 22:50:04 10° NNE 22:52:53 28° ENE 22:52:53 28° ENE
USA 81 4.5 22:50:01 10° NNW 22:55:12 59° W 22:57:54 28° SSW
CZ-4B R/B 3.8 22:50:22 10° N 22:55:30 68° WNW 22:59:09 20° SSW
CZ-4 R/B 3.8 22:50:41 10° NNE 22:55:43 83° ESE 22:57:25 43° S
OAO 1 Rocket 4.3 22:50:53 10° WSW 22:56:08 63° SSE 22:57:10 51° ESE
Cosmos 1346 Rocket 4.1 22:55:11 19° SW 22:57:26 37° WNW 23:01:07 10° N
Terra 3.1 22:57:56 26° ENE 22:58:01 26° ENE 23:01:57 10° NNE
Nadezhda 4 Rocket 4.4 22:58:24 40° ESE 22:59:29 44° E 23:05:25 10° NNE
Cosmos 1023 Rocket 4.4 22:58:38 51° SSE 22:59:49 69° ESE 23:05:03 10° NNE
Milstar 3 Cent rocket 4.4 22:58:33 10° WSW 23:00:22 11° SW 23:01:24 11° SSW
USA 245 4.1 22:58:45 44° S 23:00:39 88° WSW 23:05:40 10° NNW
Cosmos 1842 3.2 23:00:59 80° NE 23:00:59 80° NE 23:04:43 10° N
ARGOS 3.1 22:59:31 51° SE 23:00:51 72° ENE 23:06:16 10° N
SPOT 5 3.7 23:00:16 28° SW 23:01:53 38° W 23:05:55 10° NNW
Mugunghwa Rocket 4.3 22:56:06 10° WSW 23:01:59 42° S 23:02:08 42° S
Cosmos-2242 3.3 23:00:50 10° N 23:04:55 54° ENE 23:04:55 54° ENE
Cosmos 1850 Rocket 4.0 23:04:58 57° ESE 23:05:10 57° ESE 23:10:17 10° NNE
Cosmos 1140 Rocket 3.3 23:06:28 54° S 23:07:42 82° ESE 23:12:58 10° NNE
ATLAS 3B R/B 4.3 23:02:03 10° WSW 23:09:05 38° NW 23:16:01 10° NNE
H-2A R/B 2.5 23:14:20 43° ENE 23:14:25 43° ENE 23:19:12 10° N
Cosmos 1570 Rocket 4.5 23:09:17 10° N 23:14:26 46° ENE 23:14:45 45° E
YAOGAN 6 3.8 23:18:24 38° W 23:18:24 38° W 23:21:48 10° NNW
Cosmos 1607 3.9 23:16:51 23° SSW 23:21:01 84° WNW 23:27:17 10° NNE
NOSS 3-2 (A) 3.7 23:22:46 47° E 23:22:46 47° E 23:28:15 10° NE
SPOT 1/Viking Rocket 4.0 23:22:33 44° SW 23:23:38 52° W 23:28:40 10° NNW
Cosmos 2369 Rocket 3.5 23:19:40 10° NW 23:24:34 31° WSW 23:26:23 26° SW
USA 234 3.7 23:24:29 38° E 23:26:45 54° NE 23:33:07 10° NW
Cosmos 614 Rocket 3.9 23:27:50 75° ENE 23:27:50 75° ENE 23:32:49 10° NNE
SL-08 RB Rocket 3.9 23:29:36 65° W 23:29:36 65° W 23:34:00 10° NNW
Cosmos 2279 Rocket 4.4 23:26:51 10° NNW 23:32:58 59° W 23:34:50 42° SSW
NOAA 11 4.4 23:32:51 55° SW 23:33:37 61° W 23:38:59 10° NNW
CARTOSAT-1 4.2 23:39:08 53° N 23:39:08 53° N 23:42:30 10° N
Spot 2 4.4 23:34:14 10° NNE 23:38:53 78° NNE 23:38:53 78° NNE
Meteor 2-5 Rocket 4.1 23:42:55 53° ENE 23:42:55 53° ENE 23:47:59 10° NNE
Cosmos 1758 4.3 23:38:19 10° NNW 23:41:25 46° NW 23:41:25 46° NW
CZ-4C R/B 2.5 23:48:41 52° NE 23:48:41 52° NE 23:53:09 10° NE
